Regional Weather Roundup
Issued by NWS

Home | Current Version | Previous Version | Text Only | Print | Product List | Glossary On
Versions: 1 2 3 4 5 6 7 8 9 10 11 12 13 14 15 16 17 18 19 20 21 22 23 24 25 26 27 28 29 30 31 32 33 34 35 36 37 38 39 40 41 42 43 44 45 46 47 48 49 50
000
ASUS43 KIND 122309
RWRIN

WEATHER ROUNDUP FOR INDIANA
NATIONAL WEATHER SERVICE INDIANAPOLIS IN
600 PM EST FRI FEB 12 2016

NOTE: "FAIR" INDICATES FEW OR NO CLOUDS BELOW 12,000 FEET WITH NO
SIGNIFICANT WEATHER AND/OR OBSTRUCTIONS TO VISIBILITY.

* - STATION DOES NOT REPORT WEATHER SUCH AS PRECIPITATION OR FOG.

+ - STATION NOT QUALITY CONTROLLED BY THE NATIONAL WEATHER SERVICE.
    USE DATA WITH CAUTION...ESPECIALLY DEWPOINT AND RELATIVE
    HUMIDITY OBSERVATIONS.

INZ001>003-010>013-019-020-130000-
NORTHWEST INDIANA

CITY           SKY/WX    TMP DP  RH WIND       PRES   REMARKS
GARY /AIRPORT/ PTCLDY    23  -2  33 NW15G31   30.23R WCI  10
KNOX *+        MOCLDY    21   7  53 NW17G23   30.18R WCI   7
LA PORTE +     MOCLDY    21   8  56 NW15G25   30.17R WCI   8
MICHIGAN CITY+ CLOUDY    21   5  49 NW14G28   30.19R WCI   8
MONTICELLO +   CLOUDY    23   4  44 NW18G26   30.18R WCI   9
RENSSELAER +   PTCLDY    23   1  39 NW16G26   30.21R WCI  10
VALPARAISO     CLOUDY    20   3  48 NW12G23   30.18R WCI   8

$$

LMZ046-743>745-130000-
SOUTHERN LAKE MICHIGAN

STATION/POSITION TIME  TEMP    WIND        PRES    WAVE
                       AIR SEA DIR/SP/G            HT
                 (UTC) (F)     (DEG/KT/KT) (MB)    (FT)
BURNS HARBOR     2302   21     300/ 20/ 22 1023.0R
MICHIGAN CITY    2200   21     290/ 28/ 31   N/A

$$

INZ004-005-014>016-021>024-130000-
NORTH CENTRAL INDIANA

CITY           SKY/WX    TMP DP  RH WIND       PRES   REMARKS
ELKHART        LGT SNOW  19   7  58 NW56      30.14R WCI  -5
GOSHEN         LGT SNOW  17  11  77 NW17G23   30.13R WCI   1
LOGANSPORT +   CLOUDY    23   5  46 NW14G23   30.17R WCI  11
PERU/GRISSOM   MOCLDY    22  10  57 NW15      30.13R WCI   9
ROCHESTER +    PTCLDY    23   3  42 NW16G25   30.16R WCI  10
SOUTH BEND     CLOUDY    18   5  57 NW18G26   30.15R WCI   2
WARSAW +       LGT SNOW  18  14  86 W15G23    30.13R WCI   3

$$

INZ006>009-017-018-025>027-130000-
NORTHEAST INDIANA

CITY           SKY/WX    TMP DP  RH WIND       PRES   REMARKS
ANGOLA *+      MOCLDY    16  10  79 NW15      30.06R WCI   1
AUBURN +       PTCLDY    19  12  73 NW17G26   30.10R WCI   4
FORT WAYNE     FLURRIES  19  11  70 NW15G25   30.12R WCI   5
HUNTINGTON +   CLEAR     19   4  52 NW14G20   30.13R WCI   5

$$

INZ028-029-035-036-043>045-051>053-130000-
WEST CENTRAL INDIANA

CITY           SKY/WX    TMP DP  RH WIND       PRES   REMARKS
CRAWFORDSVL +  MOCLDY    21   7  54 W18G25    30.21R WCI   6
GREENCASTLE +  PTCLDY    23   5  46 NW13G28   30.21R WCI  11
LAFAYETTE      PTCLDY    23   4  44 NW22G35   30.20R WCI   8
TERRE HAUTE    MOCLDY    25  12  58 NW15G22   30.25R WCI  13

$$

INZ030>032-037>040-046>048-054>057-064-065-130000-
CENTRAL INDIANA

CITY           SKY/WX    TMP DP  RH WIND       PRES   REMARKS
FRANKFORT +    PTCLDY    24   0  36 W24G30    30.18R WCI   8
GREENWOOD *+   MOCLDY    25  16  68 NW14G30   30.18R WCI  13
INDIANAPOLIS   MOCLDY    23  10  57 W23G31    30.18R WCI   7
-EAGLE CREEK   CLOUDY    23  12  62 NW15      30.17R WCI  10
KOKOMO *+      CLOUDY    21   9  58 NW28      30.14R WCI   3
MARION +       CLOUDY    21   7  53 NW17      30.14R WCI   7
MT COMFORT *+  CLOUDY    23  12  63 NW16G31   30.16R WCI  10
SHELBYVILLE    LGT SNOW  25  17  72 NW26G32   30.16R WCI   9
ZIONSVILLE +   CLOUDY    22  10  60 W16G25    30.17R WCI   9

$$

INZ033-034-041-042-049-050-058-059-130000-
EAST CENTRAL INDIANA

CITY           SKY/WX    TMP DP  RH WIND       PRES   REMARKS
MUNCIE         MOCLDY    22  11  62 NW16G23   30.12R WCI   8

$$

INZ060-061-067>069-081>083-085>088-130000-
SOUTHWEST INDIANA

CITY           SKY/WX    TMP DP  RH WIND       PRES   REMARKS
EVANSVILLE     CLOUDY    31  18  58 NW12G28   30.30R WCI  22
HUNTINGBURG *+ CLOUDY    28  19  69 NW18G26   30.27R WCI  16
WASHINGTON +   CLOUDY    28  16  61 NW17      30.27R WCI  16

$$

INZ062-063-066-070>080-084-089>092-130000-
SOUTH CENTRAL AND SOUTHEAST INDIANA

CITY           SKY/WX    TMP DP  RH WIND       PRES   REMARKS
BLOOMINGTON    LGT SNOW  26  19  74 NW9G20    30.20R WCI  17
MADISON *+     CLOUDY    28  21  74 W10G21    30.19R WCI  19
NORTH VERNON + CLOUDY    28  19  69 W15G22    30.17R WCI  17
SEYMOUR +      CLOUDY    28  18  64 NW12      30.19R WCI  18

$$




USA.gov is the U.S. government's official web portal to all federal, state and local government web resources and services.